Main page
METAR-TAF:

METAR-TAF

Airports :

Ramsar International Airport

Ramsar, Iran

latitude: 36-54N, longitude: 050-40E, elevation: -23 m

Current weather observation

The report was made 18 minutes ago, at 14:00 UTC
Wind 2 kt from variable directions
Temperature 28°C
Humidity 74%
Pressure 1003 hPa
Visibility 10 km or more
Few clouds at a height of 2300 ft, Cumulonimbus.
Scattered clouds at a height of 2600 ft

METAR: OINR 181400Z VRB02KT 9999 FEW023CB SCT026 28/23 Q1003

Time: 18:48 (14:18 UTC)


TAF: missing

Weather observations and forecasts of more than 4000 airports (METAR and TAF reports).

The available stations are represented by yellow and red dots on the map.

Hover mouse over dot to see the name of the station.

Then click to see weather observations and forecasts.

To change the map : click on the green buttons with a black cross to zoom in, on the green button with a dash to zoom out, or on the green arrows for adjacent maps.


METAR-TAF: